Location: Ernez
(36.4595°N, 29.8755°E)
Time: 08:52:46
(UTC+00:00)

Cosmos 2151 Rocket - Pass Details

Date: 13 November 2025
Orbit: 612 x 635 km, 82.5° (Epoch: 05 December)

Event Time Altitude Azimuth Distance (km) Brightness Sun altitude
Rises 16:16:55 0° 172° (S) 2,901 7.0 -17.0°
Reaches altitude 10° 16:19:11 10° 166° (SSE) 2,002 6.1 -17.4°
Maximum altitude 16:23:27 48° 93° (E) 833 3.8 -18.3°
Enters shadow 16:25:23 29° 36° (NE) 1,177 4.6 -18.6°
